Location: Owatonna
(44.0840°N, 93.2260°W)
Time: 05:04:29
(UTC-05:00)

Tiangong - Pass Details

Date: 03 July 2022
Orbit: 381 x 385 km, 41.5° (Epoch: 16 August)

Event Time Altitude Azimuth Distance (km) Brightness Sun altitude
Rises 21:31:54 0° 272° (W) 2,248 2.7 -5.5°
Reaches altitude 10° 21:34:04 10° 263° (W) 1,394 1.4 -5.8°
Maximum altitude 21:36:58 35° 195° (SSW) 637 -1.2 -6.2°
Drops below altitude 10° 21:39:52 10° 128° (SE) 1,389 0.0 -6.6°
Enters shadow 21:40:06 - 126° (SE) 1,475 0.1 -6.6°
